Hourly Weather Abiego

Today, 22 January, Friday

Time Temperature Precipitation Wind Pressure Humidity
00:00 +7°C° 0 mm 1 mps 698 mmHg 93%
01:00 +7°C° 0.1 mm 1 mps 697 mmHg 93%
02:00 +7°C° 0.1 mm 1 mps 696 mmHg 94%
03:00 +6°C° 0.1 mm 2 mps 696 mmHg 94%
04:00 +6°C° 0.2 mm 2 mps 695 mmHg 94%
05:00 +6°C° 0.2 mm 2 mps 694 mmHg 94%
06:00 +5°C° 0.2 mm 3 mps 693 mmHg 94%
07:00 +5°C° 1.4 mm 3 mps 693 mmHg 89%
08:00 +5°C° 1.4 mm 4 mps 694 mmHg 84%
09:00 +6°C° 1.4 mm 4 mps 694 mmHg 80%
10:00 +6°C° 0 mm 5 mps 694 mmHg 75%
11:00 +6°C° 0 mm 7 mps 695 mmHg 69%
12:00 +6°C° 0 mm 8 mps 695 mmHg 64%
13:00 +6°C° 0 mm 8 mps 696 mmHg 62%
14:00 +6°C° 0 mm 8 mps 696 mmHg 59%
15:00 +6°C° 0 mm 9 mps 696 mmHg 57%
16:00 +4°C° 0 mm 8 mps 697 mmHg 63%
17:00 +3°C° 0 mm 7 mps 697 mmHg 70%
18:00 +2°C° 0 mm 6 mps 698 mmHg 76%
19:00 +1°C° 0 mm 6 mps 698 mmHg 77%
20:00 +1°C° 0 mm 5 mps 698 mmHg 78%
21:00 +1°C° 0 mm 4 mps 699 mmHg 80%
22:00 0°C° 0 mm 4 mps 699 mmHg 81%
23:00 0°C° 0 mm 4 mps 699 mmHg 81%

Tomorrow, 23 January, Saturday

Time Temperature Precipitation Wind Pressure Humidity
00:00 +1°C° 0 mm 3 mps 699 mmHg 82%
01:00 +1°C° 0 mm 3 mps 699 mmHg 84%
02:00 +1°C° 0 mm 2 mps 699 mmHg 85%
03:00 +1°C° 0 mm 2 mps 698 mmHg 86%
04:00 +1°C° 0.1 mm 2 mps 698 mmHg 87%
05:00 +1°C° 0.1 mm 2 mps 698 mmHg 87%
06:00 +1°C° 0.1 mm 2 mps 697 mmHg 88%
07:00 +2°C° 0.5 mm 2 mps 698 mmHg 88%
08:00 +1°C° 0.5 mm 3 mps 698 mmHg 87%
09:00 +1°C° 0.5 mm 4 mps 698 mmHg 87%
10:00 +2°C° 0.2 mm 6 mps 699 mmHg 77%
11:00 +4°C° 0.2 mm 8 mps 699 mmHg 67%
12:00 +5°C° 0.2 mm 9 mps 699 mmHg 56%
13:00 +5°C° 0 mm 9 mps 699 mmHg 57%
14:00 +5°C° 0 mm 8 mps 698 mmHg 59%
15:00 +5°C° 0 mm 7 mps 698 mmHg 60%
16:00 +5°C° 0.2 mm 5 mps 697 mmHg 69%
17:00 +3°C° 0.2 mm 3 mps 697 mmHg 79%
18:00 +3°C° 0.2 mm 2 mps 696 mmHg 89%
19:00 +3°C° 1.1 mm 2 mps 696 mmHg 91%
20:00 +3°C° 1.1 mm 2 mps 695 mmHg 93%
21:00 +2°C° 1.1 mm 2 mps 694 mmHg 95%
22:00 +3°C° 1 mm 1 mps 694 mmHg 95%
23:00 +4°C° 1 mm 1 mps 694 mmHg 95%

Day after tomorrow, 24 January, Sunday

Time Temperature Precipitation Wind Pressure Humidity
00:00 +4°C° 1 mm 1 mps 693 mmHg 94%
01:00 +4°C° 0.2 mm 1 mps 693 mmHg 95%
02:00 +4°C° 0.2 mm 1 mps 693 mmHg 95%
03:00 +3°C° 0.2 mm 2 mps 693 mmHg 96%
04:00 +2°C° 0 mm 3 mps 694 mmHg 93%
05:00 +1°C° 0 mm 4 mps 695 mmHg 89%
06:00 +1°C° 0 mm 5 mps 696 mmHg 86%
07:00 +1°C° 0 mm 5 mps 697 mmHg 83%
08:00 +1°C° 0 mm 5 mps 698 mmHg 79%
09:00 +2°C° 0 mm 5 mps 699 mmHg 76%
10:00 +3°C° 0 mm 6 mps 699 mmHg 72%
11:00 +4°C° 0 mm 6 mps 700 mmHg 68%
12:00 +5°C° 0 mm 7 mps 700 mmHg 64%
13:00 +5°C° 0 mm 7 mps 700 mmHg 65%
14:00 +5°C° 0 mm 7 mps 700 mmHg 66%
15:00 +5°C° 0 mm 7 mps 700 mmHg 67%
16:00 +4°C° 0 mm 6 mps 700 mmHg 72%
17:00 +3°C° 0 mm 6 mps 701 mmHg 76%
18:00 +2°C° 0 mm 5 mps 701 mmHg 80%
19:00 +1°C° 0 mm 5 mps 701 mmHg 81%
20:00 +1°C° 0 mm 5 mps 701 mmHg 82%
21:00 0°C° 0 mm 5 mps 702 mmHg 83%
22:00 0°C° 0 mm 5 mps 702 mmHg 83%
23:00 0°C° 0 mm 5 mps 702 mmHg 82%

25 January, Monday

Time Temperature Precipitation Wind Pressure Humidity
00:00 0°C° 0 mm 4 mps 703 mmHg 82%
01:00 -1°C° 0 mm 4 mps 703 mmHg 83%
02:00 -1°C° 0 mm 4 mps 703 mmHg 83%
03:00 -1°C° 0 mm 4 mps 703 mmHg 83%
04:00 0°C° 0 mm 3 mps 703 mmHg 82%
05:00 -1°C° 0 mm 3 mps 703 mmHg 82%
06:00 -1°C° 0 mm 3 mps 704 mmHg 82%
07:00 0°C° 0 mm 3 mps 704 mmHg 78%
08:00 +1°C° 0 mm 2 mps 705 mmHg 74%
09:00 +2°C° 0 mm 2 mps 705 mmHg 70%
10:00 +4°C° 0 mm 2 mps 706 mmHg 65%
11:00 +5°C° 0 mm 2 mps 706 mmHg 60%
12:00 +6°C° 0 mm 2 mps 707 mmHg 55%
13:00 +7°C° 0 mm 2 mps 707 mmHg 57%
14:00 +7°C° 0 mm 2 mps 706 mmHg 58%
15:00 +7°C° 0 mm 2 mps 706 mmHg 60%
16:00 +6°C° 0 mm 2 mps 707 mmHg 64%
17:00 +6°C° 0 mm 1 mps 707 mmHg 69%
18:00 +5°C° 0 mm 1 mps 707 mmHg 74%
19:00 +4°C° 0 mm 1 mps 707 mmHg 76%
20:00 +3°C° 0 mm 1 mps 707 mmHg 78%
21:00 +3°C° 0 mm 1 mps 708 mmHg 80%
22:00 +2°C° 0 mm 1 mps 708 mmHg 79%
23:00 +2°C° 0 mm 1 mps 708 mmHg 78%

26 January, Tuesday

Time Temperature Precipitation Wind Pressure Humidity
00:00 +2°C° 0 mm 1 mps 708 mmHg 77%
01:00 +2°C° 0 mm 1 mps 708 mmHg 76%
02:00 +1°C° 0 mm 1 mps 708 mmHg 76%
03:00 +1°C° 0 mm 1 mps 707 mmHg 75%
04:00 +1°C° 0 mm 1 mps 707 mmHg 74%
05:00 +1°C° 0 mm 1 mps 707 mmHg 72%
06:00 +1°C° 0 mm 1 mps 707 mmHg 71%
07:00 +2°C° 0 mm 1 mps 708 mmHg 69%
08:00 +2°C° 0 mm 0 mps 708 mmHg 66%
09:00 +3°C° 0 mm 0 mps 708 mmHg 64%
10:00 +4°C° 0 mm 0 mps 708 mmHg 63%
11:00 +5°C° 0 mm 0 mps 708 mmHg 61%
12:00 +6°C° 0 mm 0 mps 708 mmHg 60%
13:00 +7°C° 0 mm 1 mps 708 mmHg 65%
14:00 +7°C° 0 mm 1 mps 708 mmHg 69%
15:00 +7°C° 0 mm 1 mps 707 mmHg 74%
16:00 +6°C° 0 mm 1 mps 707 mmHg 77%
17:00 +6°C° 0 mm 1 mps 708 mmHg 80%
18:00 +6°C° 0 mm 1 mps 708 mmHg 83%
19:00 +5°C° 0 mm 1 mps 708 mmHg 85%
20:00 +5°C° 0 mm 1 mps 708 mmHg 88%
21:00 +4°C° 0 mm 2 mps 709 mmHg 90%
22:00 +4°C° 0 mm 2 mps 709 mmHg 90%
23:00 +4°C° 0 mm 2 mps 709 mmHg 90%

27 January, Wednesday

Time Temperature Precipitation Wind Pressure Humidity
00:00 +5°C° 0 mm 2 mps 709 mmHg 90%
01:00 +4°C° 0 mm 2 mps 709 mmHg 90%
02:00 +4°C° 0 mm 2 mps 709 mmHg 90%
03:00 +4°C° 0 mm 2 mps 709 mmHg 90%
04:00 +4°C° 0 mm 2 mps 709 mmHg 89%
05:00 +4°C° 0 mm 2 mps 709 mmHg 88%
06:00 +5°C° 0 mm 1 mps 709 mmHg 88%
07:00 +6°C° 0 mm 1 mps 710 mmHg 85%
08:00 +6°C° 0 mm 1 mps 710 mmHg 83%
09:00 +7°C° 0 mm 1 mps 710 mmHg 81%
10:00 +8°C° 0 mm 1 mps 711 mmHg 76%
11:00 +10°C° 0 mm 1 mps 711 mmHg 72%
12:00 +11°C° 0 mm 1 mps 711 mmHg 68%
13:00 +12°C° 0 mm 1 mps 711 mmHg 68%
14:00 +12°C° 0 mm 1 mps 710 mmHg 68%
15:00 +12°C° 0 mm 1 mps 710 mmHg 68%
16:00 +11°C° 0 mm 1 mps 710 mmHg 72%
17:00 +9°C° 0 mm 1 mps 710 mmHg 76%
18:00 +8°C° 0 mm 1 mps 710 mmHg 80%
19:00 +8°C° 0 mm 1 mps 710 mmHg 78%
20:00 +7°C° 0 mm 1 mps 710 mmHg 75%
21:00 +7°C° 0 mm 1 mps 710 mmHg 73%
22:00 +7°C° 0 mm 1 mps 710 mmHg 72%
23:00 +7°C° 0 mm 1 mps 710 mmHg 72%
Show more